User: anonymous   Login
Location: Brno
(49.2000°N, 16.6330°E)
Time: 10:38:27
(UTC+02:00)
Language:

Meteor 1-4 Rocket - Orbit

View from above orbital plane
View from above orbital plane
View from above satellite
View from above satellite

Ground track
Ground track

The orbit data is extracted from the following two-line orbital elements,

1  4394U 70037B   17175.61873943 +.00001015 +00000-0 +34977-4 0  9990
2  4394 081.2415 006.1138 0042013 098.3775 262.2227 15.28093917566376
Epoch (UTC): 24 June 2017 14:50:59
Eccentricity: 0.0042013
inclination: 81.2415°
perigee height: 452 km
apogee height: 510 km
right ascension of ascending node: 6.1138°
argument of perigee: 98.3775°
revolutions per day: 15.28093917
mean anomaly at epoch: 262.2227°
orbit number at epoch: 56637

The dashed part of the orbit path shows where the satellite is in the earth's shadow,  

DLR